This is the latest recevied weather packets stored in our database for station/object KY4LEX. If no packets are shown the sender has not sent any weather packets the latest 10 day(s).
| Time | Temp. | Humidity | Pressure | Rain* | Wind** | Luminosity | Snow |
|---|---|---|---|---|---|---|---|
| 1778123532 | 12.78° C | 60% | 1020.1 hPa | 0 mm | - | 0 W/m² | - |
| 1778123228 | 13.33° C | 60% | 1020.3 hPa | 0 mm | - | 0 W/m² | - |
| 1778122926 | 13.33° C | 61% | 1020.2 hPa | 0 mm | - | 0 W/m² | - |
| 1778122623 | 13.33° C | 60% | 1020.3 hPa | 0 mm | - | 0 W/m² | - |
| 1778122320 | 13.33° C | 59% | 1020.2 hPa | 0 mm | - | 0 W/m² | - |
| 1778122018 | 13.33° C | 60% | 1019.8 hPa | 0 mm | - | 0 W/m² | - |
| 1778121715 | 13.33° C | 58% | 1019.7 hPa | 0 mm | - | 0 W/m² | - |
| 1778121410 | 13.33° C | 59% | 1019.7 hPa | 0 mm | - | 0 W/m² | - |
| 1778121108 | 13.89° C | 61% | 1019.8 hPa | 0 mm | - | 0 W/m² | - |
| 1778120805 | 13.89° C | 62% | 1019.5 hPa | 0 mm | - | 0 W/m² | - |
| 1778120500 | 13.89° C | 62% | 1019.5 hPa | 0 mm | - | 0 W/m² | - |
| 1778120197 | 13.89° C | 64% | 1019.4 hPa | 0 mm | - | 0 W/m² | - |
| 1778119892 | 13.89° C | 63% | 1019.4 hPa | 0 mm | - | 0 W/m² | - |
| 1778119591 | 13.89° C | 64% | 1019.4 hPa | 0 mm | - | 0 W/m² | - |
| 1778119287 | 13.89° C | 64% | 1019.2 hPa | 0 mm | - | 0 W/m² | - |
| 1778118985 | 13.89° C | 64% | 1018.9 hPa | 0 mm | - | 0 W/m² | - |
| 1778118682 | 13.89° C | 63% | 1019.1 hPa | 0 mm | - | 0 W/m² | - |
| 1778118379 | 13.89° C | 62% | 1019.1 hPa | 0 mm | - | 0 W/m² | - |
| 1778118075 | 13.89° C | 63% | 1019.1 hPa | 0 mm | - | 0 W/m² | - |
| 1778117772 | 13.89° C | 66% | 1019.3 hPa | 0 mm | - | 0 W/m² | - |
| 1778117469 | 13.89° C | 64% | 1019.3 hPa | 0 mm | - | 0 W/m² | - |
| 1778117166 | 13.89° C | 67% | 1019.4 hPa | 0 mm | - | 0 W/m² | - |
| 1778116861 | 13.89° C | 68% | 1019.3 hPa | 0 mm | - | 0 W/m² | - |
| 1778116560 | 13.89° C | 66% | 1019.3 hPa | 0 mm | - | 0 W/m² | - |
| 1778116255 | 13.89° C | 65% | 1019.1 hPa | 0 mm | - | 0 W/m² | - |
* Rain latest hour (hover to see other rain measurements)
** Current wind speed in m/s (hover to see current wind gust speed)